User: anonymous   Login
Location: Unspecified
(0.0000°N, 0.0000°E)
Time: 15:58:11
(UTC+00:00)
Language:

AEHF 3 (USA 246) - Orbit

View from above orbital plane
View from above orbital plane
View from above satellite
View from above satellite

Ground track
Ground track

The orbit data is extracted from the following two-line orbital elements,

1 39256U 13050A   20050.49007640 -.00000372  00000-0  00000+0 0  9993
2 39256   0.7309 335.0896 0007575 347.0786 114.2555  1.00272225 23525
Epoch (UTC): 19 February 2020 11:45:42
Eccentricity: 0.0007575
inclination: 0.7309°
perigee height: 35754 km
apogee height: 35818 km
right ascension of ascending node: 335.0896°
argument of perigee: 347.0786°
revolutions per day: 1.00272225
mean anomaly at epoch: 114.2555°
orbit number at epoch: 2352

The dashed part of the orbit path shows where the satellite is in the earth's shadow,  

DLR